Карточка аэропорта UNEE

Внимание!
Информация на этой странице в стадии наполнения.
Если вы не увидели какой-то информации, или заметили неточность - пожалуйста сообщите нам!
Спасибо!
Команда RU-STAFF
Название аэропортаКемерово
Название аэропорта (англ.)Kemerovo
Превышение873 ft. (266.1 m.)
Координаты55°16.2', 86°6.6'
Высота перехода500m
Эшелон переходаQFE>=760mm:FL030; QFE<=759=>733mm:FL040; QFE<=732mm:FL050
Коды ответчика5260-5267
Зона ОрВДНовосибирск РПИ (UNNT)
Данные METARUNEE 271130Z 20006MPS 9999 SCT022CB 12/06 Q1006 R23/////// NOSIG RMK QFE732
Проноз погоды (TAF)UNEE 271100Z 2712/2812 25009G20MPS 8000 BKN020CB TX09/2712Z TN02/2722Z TEMPO 2712/2714 20008G16MPS 3000 -SHRA BKN011CB BECMG 2714/2717 21003G08MPS BKN040CB TEMPO 2800/2810 31005G10MPS -SHRA BKN016CB
NOTAMshow/hide NOTAM
AWOS   TABLE

Информация о ВПП

ВПП Длина ВПП (м.) Покрытие Курс ВПП Частота ILS
053200Цементобетон46 
233200Цементобетон226109.1

Диспетчерские позиции

Позывной Наименование органа УВД Частота
UNEE_APPКемерово-Подход125.5
UNEE_TWRКемерово-Старт118.3



Спутниковое изображение